Terminal Aerodrome Forecast
Issued by NWS Denver/Boulder, CO

Home | Current Version | Previous Version | Text Only | Print | Product List | Glossary On
Versions: 1 2 3 4 5 6 7 8 9 10 11 12 13 14 15 16 17 18 19 20 21 22 23 24 25 26 27 28 29 30 31 32 33 34 35 36 37 38 39 40 41 42 43 44 45 46 47 48 49 50
000
FTUS45 KBOU 231601 AAB
TAFDEN
TAF AMD
KDEN 231601Z 2316/2418 VRB06KT P6SM SCT150 BKN220
     FM231800 36009KT P6SM BKN120
     FM232000 03008KT P6SM FEW080 BKN120
     FM240100 VRB05KT P6SM SCT060 BKN100
     FM240300 20010KT P6SM FEW060 BKN100=

USA.gov is the U.S. government's official web portal to all federal, state and local government web resources and services.